Back to catalog

BREEZE-M DEB

TANK

AliveHEO
NORAD 40986·DEBRIS·🇷🇺 Russia

Launched Oct 16, 2015 from Baikonur Cosmodrome

Loading…

Next Passes (next 24 hours)

TLE

FreshSource: Space-Track

Epoch: Sep 14, 2026, 15:48 UTC

1 40986U 15060C   26257.65839370  .00000540  00000-0  27411-3 0  9999
2 40986  49.0465 134.7910 6078532 297.3182  14.3197  3.85676044152416

Track BREEZE-M DEB in real time with AllMySat

Download on the App Store